Time,TemperatureF,DewpointF,PressureIn,WindDirection,WindDirectionDegrees,WindSpeedMPH,WindSpeedGustMPH,Humidity,HourlyPrecipIn,Conditions,Clouds,dailyrainin,SoftwareType,DateUTC
2013-05-29 00:00:00,68.0,60.2,29.92,ESE,109,0.0,11.0,76,0.00,,,0.05,VWS V14.01,2013-05-29 05:00:00,
2013-05-29 00:09:00,67.0,60.6,29.93,SE,131,0.0,6.0,80,0.02,,,0.02,VWS V14.01,2013-05-29 05:09:00,
2013-05-29 00:14:00,66.5,60.8,29.92,SE,130,0.0,6.0,82,0.04,,,0.04,VWS V14.01,2013-05-29 05:14:00,
2013-05-29 00:19:00,66.0,60.7,29.92,SE,130,0.0,6.0,83,0.05,,,0.05,VWS V14.01,2013-05-29 05:19:00,
2013-05-29 00:24:00,65.6,61.0,29.92,SE,130,0.0,6.0,85,0.05,,,0.05,VWS V14.01,2013-05-29 05:24:00,
2013-05-29 00:29:00,65.3,60.7,29.92,SE,130,0.0,6.0,85,0.05,,,0.05,VWS V14.01,2013-05-29 05:29:00,
2013-05-29 00:30:00,70.0,61.0,29.93,South,171,4.0,14.0,73,0.00,,,0.05,VWS V14.01,2013-05-29 05:30:00,
2013-05-29 00:34:00,65.0,60.7,29.92,SE,130,0.0,4.0,86,0.05,,,0.05,VWS V14.01,2013-05-29 05:34:00,
2013-05-29 00:39:00,64.8,60.8,29.92,SE,130,0.0,4.0,87,0.05,,,0.05,VWS V14.01,2013-05-29 05:39:00,
2013-05-29 00:44:00,64.7,60.8,29.92,SE,130,0.0,4.0,87,0.05,,,0.05,VWS V14.01,2013-05-29 05:44:00,
2013-05-29 00:49:00,64.5,60.9,29.91,SE,130,0.0,4.0,88,0.05,,,0.05,VWS V14.01,2013-05-29 05:49:00,
2013-05-29 00:54:00,64.5,60.9,29.91,SE,130,0.0,4.0,88,0.05,,,0.05,VWS V14.01,2013-05-29 05:54:00,
2013-05-29 00:59:00,64.4,60.8,29.91,SE,130,0.0,4.0,88,0.05,,,0.05,VWS V14.01,2013-05-29 05:59:00,
2013-05-29 01:00:00,68.0,60.2,29.92,ESE,109,0.0,11.0,76,0.00,,,0.05,VWS V14.01,2013-05-29 06:00:00,
2013-05-29 01:04:00,64.3,61.0,29.91,SE,130,0.0,0.0,89,0.05,,,0.05,VWS V14.01,2013-05-29 06:04:00,
2013-05-29 01:09:00,64.2,60.9,29.91,SE,130,0.0,1.0,89,0.05,,,0.05,VWS V14.01,2013-05-29 06:09:00,
2013-05-29 01:14:00,64.1,60.8,29.91,SE,136,1.0,4.0,89,0.05,,,0.05,VWS V14.01,2013-05-29 06:14:00,
2013-05-29 01:19:00,64.0,60.7,29.90,SE,136,0.0,4.0,89,0.05,,,0.05,VWS V14.01,2013-05-29 06:19:00,
2013-05-29 01:24:00,63.9,60.6,29.90,ESE,117,4.0,5.0,89,0.05,,,0.05,VWS V14.01,2013-05-29 06:24:00,
2013-05-29 01:29:00,63.8,60.5,29.91,SE,146,1.0,5.0,89,0.05,,,0.05,VWS V14.01,2013-05-29 06:29:00,
2013-05-29 01:30:00,65.3,60.7,29.92,SE,130,2.0,6.0,85,0.05,,,0.05,VWS V14.01,2013-05-29 06:30:00,
2013-05-29 01:34:00,63.8,60.5,29.90,ESE,115,0.0,5.0,89,0.00,,,0.05,VWS V14.01,2013-05-29 06:34:00,
2013-05-29 01:39:00,63.8,60.5,29.89,ESE,115,0.0,5.0,89,0.00,,,0.05,VWS V14.01,2013-05-29 06:39:00,
2013-05-29 01:44:00,63.8,60.5,29.89,ESE,115,0.0,5.0,89,0.00,,,0.05,VWS V14.01,2013-05-29 06:44:00,
2013-05-29 01:49:00,63.7,60.4,29.89,ESE,115,0.0,5.0,89,0.00,,,0.05,VWS V14.01,2013-05-29 06:49:00,
2013-05-29 01:54:00,63.6,60.3,29.89,ESE,117,0.0,5.0,89,0.00,,,0.05,VWS V14.01,2013-05-29 06:54:00,
2013-05-29 01:59:00,63.6,60.3,29.90,SE,126,0.0,5.0,89,0.00,,,0.05,VWS V14.01,2013-05-29 06:59:00,
2013-05-29 02:00:00,64.4,60.8,29.91,SE,130,0.0,4.0,88,0.05,,,0.05,VWS V14.01,2013-05-29 07:00:00,
2013-05-29 02:04:00,63.5,60.2,29.89,SE,133,0.0,5.0,89,0.00,,,0.05,VWS V14.01,2013-05-29 07:04:00,
2013-05-29 02:09:00,63.5,60.2,29.89,SE,133,2.0,5.0,89,0.00,,,0.05,VWS V14.01,2013-05-29 07:09:00,
2013-05-29 02:14:00,63.5,60.2,29.90,SE,146,0.0,5.0,89,0.00,,,0.05,VWS V14.01,2013-05-29 07:14:00,
2013-05-29 02:19:00,63.4,60.4,29.90,SE,146,0.0,5.0,90,0.00,,,0.05,VWS V14.01,2013-05-29 07:19:00,
2013-05-29 02:24:00,63.4,60.4,29.90,SE,146,0.0,5.0,90,0.00,,,0.05,VWS V14.01,2013-05-29 07:24:00,
2013-05-29 02:29:00,63.5,60.5,29.90,SE,146,0.0,5.0,90,0.00,,,0.05,VWS V14.01,2013-05-29 07:29:00,
2013-05-29 02:30:00,63.9,60.6,29.91,SE,138,4.0,5.0,89,0.05,,,0.05,VWS V14.01,2013-05-29 07:30:00,
2013-05-29 02:34:00,63.5,60.5,29.90,SE,146,0.0,0.0,90,0.00,,,0.05,VWS V14.01,2013-05-29 07:34:00,
2013-05-29 02:39:00,63.5,60.5,29.90,SE,146,0.0,0.0,90,0.00,,,0.05,VWS V14.01,2013-05-29 07:39:00,
2013-05-29 02:44:00,63.6,60.6,29.90,SE,146,0.0,0.0,90,0.00,,,0.05,VWS V14.01,2013-05-29 07:44:00,
2013-05-29 02:49:00,63.6,60.6,29.89,SE,146,0.0,0.0,90,0.00,,,0.05,VWS V14.01,2013-05-29 07:49:00,
2013-05-29 02:54:00,63.6,60.6,29.89,SE,146,0.0,0.0,90,0.00,,,0.05,VWS V14.01,2013-05-29 07:54:00,
2013-05-29 02:59:00,63.7,60.4,29.89,SE,146,0.0,2.0,89,0.00,,,0.05,VWS V14.01,2013-05-29 07:59:00,
2013-05-29 03:04:00,63.8,60.5,29.90,SE,146,0.0,4.0,89,0.00,,,0.05,VWS V14.01,2013-05-29 08:04:00,
2013-05-29 03:09:00,63.8,60.5,29.90,SE,146,1.0,4.0,89,0.00,,,0.05,VWS V14.01,2013-05-29 08:09:00,
2013-05-29 03:14:00,63.9,60.3,29.90,SE,146,0.0,4.0,88,0.00,,,0.05,VWS V14.01,2013-05-29 08:14:00,
2013-05-29 03:19:00,64.0,60.4,29.90,SSE,147,0.0,4.0,88,0.00,,,0.05,VWS V14.01,2013-05-29 08:19:00,
2013-05-29 03:24:00,64.1,60.5,29.91,SSE,148,2.0,4.0,88,0.00,,,0.05,VWS V14.01,2013-05-29 08:24:00,
2013-05-29 03:29:00,64.3,60.7,29.93,WNW,290,9.0,16.0,88,0.00,,,0.05,VWS V14.01,2013-05-29 08:29:00,
2013-05-29 03:30:00,63.4,60.4,29.90,SE,146,0.0,5.0,90,0.00,,,0.05,VWS V14.01,2013-05-29 08:30:00,
2013-05-29 03:34:00,64.5,60.9,29.92,WNW,298,4.0,12.0,88,0.00,,,0.05,VWS V14.01,2013-05-29 08:34:00,
2013-05-29 03:39:00,64.6,60.7,29.94,WNW,282,7.0,12.0,87,0.00,,,0.05,VWS V14.01,2013-05-29 08:39:00,
2013-05-29 03:44:00,64.8,60.8,29.94,WNW,300,2.0,12.0,87,0.01,,,0.06,VWS V14.01,2013-05-29 08:44:00,
2013-05-29 03:49:00,64.9,60.6,29.93,WNW,300,0.0,12.0,86,0.01,,,0.06,VWS V14.01,2013-05-29 08:49:00,
2013-05-29 03:55:00,64.9,60.9,29.92,WNW,300,0.0,12.0,87,0.01,,,0.06,VWS V14.01,2013-05-29 08:55:00,
2013-05-29 04:00:00,64.8,60.8,29.92,WNW,300,0.0,12.0,87,0.01,,,0.06,VWS V14.01,2013-05-29 09:00:00,
2013-05-29 04:05:00,64.8,61.2,29.91,WNW,300,0.0,2.0,88,0.01,,,0.06,VWS V14.01,2013-05-29 09:05:00,
2013-05-29 04:10:00,64.7,61.4,29.92,WNW,300,4.0,4.0,89,0.01,,,0.06,VWS V14.01,2013-05-29 09:10:00,
2013-05-29 04:15:00,64.5,61.2,29.91,WNW,300,0.0,4.0,89,0.01,,,0.06,VWS V14.01,2013-05-29 09:15:00,
2013-05-29 04:20:00,64.3,61.0,29.91,WNW,300,1.0,4.0,89,0.01,,,0.06,VWS V14.01,2013-05-29 09:20:00,
2013-05-29 04:25:00,64.1,61.1,29.91,WNW,300,0.0,4.0,90,0.01,,,0.06,VWS V14.01,2013-05-29 09:25:00,
2013-05-29 04:30:00,64.0,61.0,29.91,WNW,300,0.0,4.0,90,0.01,,,0.06,VWS V14.01,2013-05-29 09:30:00,
2013-05-29 04:35:00,63.9,60.9,29.91,WNW,300,0.0,0.0,90,0.01,,,0.06,VWS V14.01,2013-05-29 09:35:00,
2013-05-29 04:40:00,63.8,60.8,29.91,WNW,300,0.0,0.0,90,0.01,,,0.06,VWS V14.01,2013-05-29 09:40:00,
2013-05-29 04:45:00,63.8,60.8,29.91,WNW,300,0.0,0.0,90,0.01,,,0.06,VWS V14.01,2013-05-29 09:45:00,
2013-05-29 04:50:00,63.7,60.7,29.90,WNW,300,0.0,0.0,90,0.01,,,0.06,VWS V14.01,2013-05-29 09:50:00,
2013-05-29 04:55:00,63.6,60.9,29.90,WNW,300,0.0,2.0,91,0.01,,,0.06,VWS V14.01,2013-05-29 09:55:00,
2013-05-29 05:00:00,63.6,60.6,29.90,WNW,300,0.0,2.0,90,0.01,,,0.06,VWS V14.01,2013-05-29 10:00:00,
2013-05-29 05:05:00,63.5,60.8,29.90,WNW,300,0.0,1.0,91,0.00,,,0.06,VWS V14.01,2013-05-29 10:05:00,
2013-05-29 05:10:00,63.5,60.8,29.90,WNW,300,0.0,1.0,91,0.00,,,0.06,VWS V14.01,2013-05-29 10:10:00,
2013-05-29 05:15:00,63.5,60.8,29.90,WNW,300,0.0,1.0,91,0.00,,,0.06,VWS V14.01,2013-05-29 10:15:00,
2013-05-29 05:20:00,63.4,60.7,29.90,WNW,300,0.0,1.0,91,0.00,,,0.06,VWS V14.01,2013-05-29 10:20:00,
2013-05-29 05:25:00,63.4,60.7,29.90,WNW,300,0.0,1.0,91,0.00,,,0.06,VWS V14.01,2013-05-29 10:25:00,
2013-05-29 05:30:00,63.4,60.7,29.90,WNW,300,0.0,0.0,91,0.00,,,0.06,VWS V14.01,2013-05-29 10:30:00,
2013-05-29 05:35:00,63.4,60.7,29.89,WNW,300,0.0,1.0,91,0.00,,,0.06,VWS V14.01,2013-05-29 10:35:00,
2013-05-29 05:40:00,63.3,60.6,29.89,WNW,300,0.0,1.0,91,0.00,,,0.06,VWS V14.01,2013-05-29 10:40:00,
2013-05-29 05:45:00,63.3,60.6,29.89,WNW,300,2.0,5.0,91,0.00,,,0.06,VWS V14.01,2013-05-29 10:45:00,
2013-05-29 05:50:00,63.4,60.7,29.89,WNW,300,0.0,5.0,91,0.00,,,0.06,VWS V14.01,2013-05-29 10:50:00,
2013-05-29 05:55:00,63.4,60.7,29.89,WNW,300,0.0,5.0,91,0.00,,,0.06,VWS V14.01,2013-05-29 10:55:00,
2013-05-29 06:00:00,63.5,60.5,29.89,WNW,300,0.0,0.0,90,0.00,,,0.06,VWS V14.01,2013-05-29 11:00:00,
2013-05-29 06:05:00,63.6,60.9,29.89,WNW,300,1.0,1.0,91,0.00,,,0.06,VWS V14.01,2013-05-29 11:05:00,
2013-05-29 06:10:00,63.7,60.7,29.89,WNW,300,0.0,1.0,90,0.00,,,0.06,VWS V14.01,2013-05-29 11:10:00,
2013-05-29 06:15:00,63.7,60.7,29.89,WNW,300,0.0,2.0,90,0.00,,,0.06,VWS V14.01,2013-05-29 11:15:00,
2013-05-29 06:20:00,63.8,60.8,29.89,WNW,300,0.0,2.0,90,0.01,,,0.07,VWS V14.01,2013-05-29 11:20:00,
2013-05-29 06:25:00,63.9,60.9,29.89,WNW,300,2.0,4.0,90,0.01,,,0.07,VWS V14.01,2013-05-29 11:25:00,
2013-05-29 06:30:00,64.0,61.0,29.89,WNW,300,1.0,2.0,90,0.01,,,0.07,VWS V14.01,2013-05-29 11:30:00,
2013-05-29 06:35:00,64.0,61.0,29.89,WNW,300,0.0,4.0,90,0.01,,,0.07,VWS V14.01,2013-05-29 11:35:00,
2013-05-29 06:40:00,64.1,61.1,29.89,WNW,300,1.0,4.0,90,0.01,,,0.07,VWS V14.01,2013-05-29 11:40:00,
2013-05-29 06:45:00,64.2,61.2,29.89,WNW,300,1.0,4.0,90,0.01,,,0.07,VWS V14.01,2013-05-29 11:45:00,
2013-05-29 06:50:00,64.4,61.4,29.90,WNW,300,2.0,4.0,90,0.01,,,0.07,VWS V14.01,2013-05-29 11:50:00,
2013-05-29 06:55:00,64.5,61.5,29.90,WNW,300,0.0,4.0,90,0.01,,,0.07,VWS V14.01,2013-05-29 11:55:00,
2013-05-29 07:00:00,64.7,61.7,29.90,WNW,300,1.0,1.0,90,0.01,,,0.07,VWS V14.01,2013-05-29 12:00:00,
2013-05-29 07:05:00,64.8,61.8,29.90,WNW,301,0.0,1.0,90,0.01,,,0.07,VWS V14.01,2013-05-29 12:05:00,
2013-05-29 07:10:00,65.0,61.7,29.90,WNW,301,4.0,4.0,89,0.01,,,0.07,VWS V14.01,2013-05-29 12:10:00,
2013-05-29 07:15:00,65.1,61.8,29.90,WNW,301,2.0,4.0,89,0.01,,,0.07,VWS V14.01,2013-05-29 12:15:00,
2013-05-29 07:20:00,65.2,61.9,29.90,WNW,301,0.0,4.0,89,0.01,,,0.07,VWS V14.01,2013-05-29 12:20:00,
2013-05-29 07:25:00,65.4,62.1,29.90,West,277,2.0,4.0,89,0.01,,,0.07,VWS V14.01,2013-05-29 12:25:00,
2013-05-29 07:30:00,65.7,62.4,29.90,West,277,1.0,2.0,89,0.00,,,0.07,VWS V14.01,2013-05-29 12:30:00,
2013-05-29 07:35:00,66.0,62.7,29.90,West,277,0.0,2.0,89,0.00,,,0.07,VWS V14.01,2013-05-29 12:35:00,
2013-05-29 07:40:00,66.3,63.0,29.90,West,277,0.0,2.0,89,0.00,,,0.07,VWS V14.01,2013-05-29 12:40:00,
2013-05-29 07:45:00,66.6,63.3,29.90,West,277,0.0,2.0,89,0.00,,,0.07,VWS V14.01,2013-05-29 12:45:00,
2013-05-29 07:50:00,67.1,64.1,29.90,West,277,0.0,2.0,90,0.00,,,0.07,VWS V14.01,2013-05-29 12:50:00,
2013-05-29 07:55:00,67.6,64.2,29.90,West,278,1.0,4.0,89,0.00,,,0.07,VWS V14.01,2013-05-29 12:55:00,
2013-05-29 08:00:00,68.2,64.5,29.90,SW,224,0.0,0.0,88,0.00,,,0.07,VWS V14.01,2013-05-29 13:00:00,
2013-05-29 08:05:00,68.6,64.9,29.91,SE,146,1.0,2.0,88,0.00,,,0.07,VWS V14.01,2013-05-29 13:05:00,
2013-05-29 08:10:00,68.9,64.9,29.91,SE,136,0.0,2.0,87,0.00,,,0.07,VWS V14.01,2013-05-29 13:10:00,
2013-05-29 08:15:00,69.3,65.3,29.91,SE,136,0.0,2.0,87,0.00,,,0.07,VWS V14.01,2013-05-29 13:15:00,
2013-05-29 08:20:00,69.6,65.6,29.91,SE,136,0.0,2.0,87,0.00,,,0.07,VWS V14.01,2013-05-29 13:20:00,
2013-05-29 08:25:00,70.0,65.6,29.91,SE,136,0.0,2.0,86,0.00,,,0.07,VWS V14.01,2013-05-29 13:25:00,
2013-05-29 08:30:00,70.4,66.0,29.91,SE,136,0.0,1.0,86,0.00,,,0.07,VWS V14.01,2013-05-29 13:30:00,
2013-05-29 08:35:00,70.8,66.4,29.90,SE,141,0.0,4.0,86,0.00,,,0.07,VWS V14.01,2013-05-29 13:35:00,
2013-05-29 08:40:00,71.3,66.6,29.90,SE,142,0.0,4.0,85,0.00,,,0.07,VWS V14.01,2013-05-29 13:40:00,
2013-05-29 08:45:00,71.8,66.7,29.91,SE,135,0.0,4.0,84,0.00,,,0.07,VWS V14.01,2013-05-29 13:45:00,
2013-05-29 08:50:00,72.2,67.1,29.91,South,186,0.0,4.0,84,0.00,,,0.07,VWS V14.01,2013-05-29 13:50:00,
2013-05-29 08:56:00,72.5,67.1,29.90,South,191,1.0,4.0,83,0.00,,,0.07,VWS V14.01,2013-05-29 13:56:00,
2013-05-29 09:00:00,68.1,64.4,29.91,SW,224,0.0,4.0,88,0.00,,,0.07,VWS V14.01,2013-05-29 14:00:00,
2013-05-29 09:01:00,72.9,67.4,29.90,SSW,192,3.0,3.0,83,0.00,,,0.07,VWS V14.01,2013-05-29 14:01:00,
2013-05-29 09:06:00,73.4,67.6,29.90,SE,125,0.0,4.0,82,0.00,,,0.07,VWS V14.01,2013-05-29 14:06:00,
2013-05-29 09:11:00,73.9,67.3,29.90,SE,130,0.0,4.0,80,0.00,,,0.07,VWS V14.01,2013-05-29 14:11:00,
2013-05-29 09:16:00,74.5,67.6,29.90,WSW,242,0.0,4.0,79,0.00,,,0.07,VWS V14.01,2013-05-29 14:16:00,
2013-05-29 09:21:00,75.0,68.1,29.90,ESE,103,0.0,5.0,79,0.00,,,0.07,VWS V14.01,2013-05-29 14:21:00,
2013-05-29 09:26:00,75.4,67.7,29.90,East,95,0.0,5.0,77,0.00,,,0.07,VWS V14.01,2013-05-29 14:26:00,
2013-05-29 09:30:00,70.3,65.9,29.91,SE,136,1.0,2.0,86,0.00,,,0.07,VWS V14.01,2013-05-29 14:30:00,
2013-05-29 09:31:00,75.7,67.6,29.90,ENE,67,0.0,6.0,76,0.00,,,0.07,VWS V14.01,2013-05-29 14:31:00,
2013-05-29 09:36:00,76.0,68.3,29.90,ESE,123,0.0,6.0,77,0.00,,,0.07,VWS V14.01,2013-05-29 14:36:00,
2013-05-29 09:41:00,76.2,68.1,29.90,ESE,122,0.0,6.0,76,0.00,,,0.07,VWS V14.01,2013-05-29 14:41:00,
2013-05-29 09:46:00,76.4,67.9,29.89,NE,55,0.0,6.0,75,0.00,,,0.07,VWS V14.01,2013-05-29 14:46:00,
2013-05-29 09:51:00,76.7,68.2,29.89,West,278,5.0,6.0,75,0.00,,,0.07,VWS V14.01,2013-05-29 14:51:00,
2013-05-29 09:56:00,76.8,68.7,29.89,WSW,246,0.0,6.0,76,0.00,,,0.07,VWS V14.01,2013-05-29 14:56:00,
2013-05-29 10:01:00,76.8,68.3,29.89,WSW,257,3.0,3.0,75,0.00,,,0.07,VWS V14.01,2013-05-29 15:01:00,
2013-05-29 10:06:00,76.9,68.4,29.88,East,91,0.0,5.0,75,0.00,,,0.07,VWS V14.01,2013-05-29 15:06:00,
2013-05-29 10:11:00,77.3,69.2,29.88,South,188,0.0,5.0,76,0.00,,,0.07,VWS V14.01,2013-05-29 15:11:00,
2013-05-29 10:16:00,77.7,68.4,29.88,WNW,296,0.0,5.0,73,0.00,,,0.07,VWS V14.01,2013-05-29 15:16:00,
2013-05-29 10:21:00,78.3,69.3,29.88,WNW,296,0.0,5.0,74,0.00,,,0.07,VWS V14.01,2013-05-29 15:21:00,
2013-05-29 10:26:00,78.9,69.5,29.87,ESE,118,0.0,7.0,73,0.00,,,0.07,VWS V14.01,2013-05-29 15:26:00,
2013-05-29 10:30:00,75.7,68.4,29.90,South,180,2.0,5.0,78,0.00,,,0.07,VWS V14.01,2013-05-29 15:30:00,
2013-05-29 10:31:00,79.1,68.9,29.88,East,101,1.0,2.0,71,0.00,,,0.07,VWS V14.01,2013-05-29 15:31:00,
2013-05-29 10:36:00,79.4,69.2,29.87,SSW,193,0.0,6.0,71,0.00,,,0.07,VWS V14.01,2013-05-29 15:36:00,
2013-05-29 10:41:00,79.8,68.7,29.87,SSE,148,0.0,7.0,69,0.00,,,0.07,VWS V14.01,2013-05-29 15:41:00,
2013-05-29 10:46:00,80.1,68.2,29.88,WNW,288,0.0,8.0,67,0.00,,,0.07,VWS V14.01,2013-05-29 15:46:00,
2013-05-29 10:51:00,80.3,69.2,29.88,East,82,0.0,8.0,69,0.00,,,0.07,VWS V14.01,2013-05-29 15:51:00,
2013-05-29 10:56:00,80.4,68.4,29.88,WNW,299,5.0,8.0,67,0.00,,,0.07,VWS V14.01,2013-05-29 15:56:00,
2013-05-29 11:00:00,76.8,67.9,29.89,ESE,119,0.0,6.0,74,0.00,,,0.07,VWS V14.01,2013-05-29 16:00:00,
2013-05-29 11:01:00,80.3,68.3,29.88,West,279,0.0,2.0,67,0.00,,,0.07,VWS V14.01,2013-05-29 16:01:00,
2013-05-29 11:06:00,80.4,68.4,29.88,SW,229,0.0,8.0,67,0.00,,,0.07,VWS V14.01,2013-05-29 16:06:00,
2013-05-29 11:11:00,80.7,68.7,29.87,West,280,1.0,8.0,67,0.00,,,0.07,VWS V14.01,2013-05-29 16:11:00,
2013-05-29 11:16:00,81.0,69.0,29.88,SSE,157,0.0,8.0,67,0.00,,,0.07,VWS V14.01,2013-05-29 16:16:00,
2013-05-29 11:21:00,81.5,68.6,29.88,WNW,294,0.0,8.0,65,0.00,,,0.07,VWS V14.01,2013-05-29 16:21:00,
2013-05-29 11:26:00,81.7,69.2,29.88,WSW,238,0.0,8.0,66,0.00,,,0.07,VWS V14.01,2013-05-29 16:26:00,
2013-05-29 11:30:00,79.1,68.5,29.88,East,80,2.0,7.0,70,0.00,,,0.07,VWS V14.01,2013-05-29 16:30:00,
2013-05-29 11:31:00,82.1,68.7,29.88,NW,319,2.0,3.0,64,0.00,,,0.07,VWS V14.01,2013-05-29 16:31:00,
2013-05-29 11:36:00,82.2,68.8,29.88,WSW,257,0.0,6.0,64,0.00,,,0.07,VWS V14.01,2013-05-29 16:36:00,
2013-05-29 11:41:00,82.2,68.8,29.87,WNW,284,5.0,9.0,64,0.00,,,0.07,VWS V14.01,2013-05-29 16:41:00,
2013-05-29 11:46:00,82.3,69.4,29.87,SE,140,1.0,9.0,65,0.00,,,0.07,VWS V14.01,2013-05-29 16:46:00,
2013-05-29 11:51:00,82.6,69.2,29.87,SSE,147,0.0,9.0,64,0.00,,,0.07,VWS V14.01,2013-05-29 16:51:00,
2013-05-29 11:56:00,83.0,69.6,29.87,West,274,0.0,10.0,64,0.00,,,0.07,VWS V14.01,2013-05-29 16:56:00,
2013-05-29 12:00:00,80.3,68.3,29.88,SW,231,2.0,8.0,67,0.00,,,0.07,VWS V14.01,2013-05-29 17:00:00,
2013-05-29 12:01:00,83.3,69.4,29.87,SSW,209,0.0,3.0,63,0.00,,,0.07,VWS V14.01,2013-05-29 17:01:00,
2013-05-29 12:06:00,83.8,68.9,29.87,SE,130,0.0,4.0,61,0.00,,,0.07,VWS V14.01,2013-05-29 17:06:00,
2013-05-29 12:11:00,84.1,70.2,29.87,ENE,78,5.0,7.0,63,0.00,,,0.07,VWS V14.01,2013-05-29 17:11:00,
2013-05-29 12:16:00,84.2,68.8,29.87,NW,319,0.0,12.0,60,0.00,,,0.07,VWS V14.01,2013-05-29 17:16:00,
2013-05-29 12:21:00,84.4,70.0,29.87,WSW,252,0.0,12.0,62,0.00,,,0.07,VWS V14.01,2013-05-29 17:21:00,
2013-05-29 12:26:00,84.6,69.7,29.87,East,88,0.0,12.0,61,0.00,,,0.07,VWS V14.01,2013-05-29 17:26:00,
2013-05-29 12:30:00,82.0,69.5,29.88,West,271,2.0,8.0,66,0.00,,,0.07,VWS V14.01,2013-05-29 17:30:00,
2013-05-29 12:31:00,84.8,68.9,29.87,SSW,212,2.0,10.0,59,0.00,,,0.07,VWS V14.01,2013-05-29 17:31:00,
2013-05-29 12:36:00,84.8,69.4,29.87,SW,235,0.0,10.0,60,0.00,,,0.07,VWS V14.01,2013-05-29 17:36:00,
2013-05-29 12:41:00,85.0,70.1,29.87,South,185,3.0,10.0,61,0.00,,,0.07,VWS V14.01,2013-05-29 17:41:00,
2013-05-29 12:46:00,85.2,67.8,29.87,West,271,2.0,10.0,56,0.00,,,0.07,VWS V14.01,2013-05-29 17:46:00,
2013-05-29 12:51:00,85.2,68.3,29.87,South,187,0.0,10.0,57,0.00,,,0.07,VWS V14.01,2013-05-29 17:51:00,
2013-05-29 12:56:00,85.2,67.2,29.86,SE,128,0.0,10.0,55,0.00,,,0.07,VWS V14.01,2013-05-29 17:56:00,
2013-05-29 13:00:00,83.2,69.3,29.87,West,280,0.0,10.0,63,0.00,,,0.07,VWS V14.01,2013-05-29 18:00:00,
2013-05-29 13:01:00,85.3,67.8,29.86,SE,143,0.0,1.0,56,0.00,,,0.07,VWS V14.01,2013-05-29 18:01:00,
2013-05-29 13:06:00,85.7,69.2,29.86,SSE,152,1.0,8.0,58,0.00,,,0.07,VWS V14.01,2013-05-29 18:06:00,
2013-05-29 13:11:00,85.9,67.3,29.85,ESE,116,7.0,8.0,54,0.00,,,0.07,VWS V14.01,2013-05-29 18:11:00,
2013-05-29 13:16:00,86.0,66.3,29.85,ENE,78,2.0,8.0,52,0.00,,,0.07,VWS V14.01,2013-05-29 18:16:00,
2013-05-29 13:21:00,86.1,67.5,29.85,NW,310,4.0,11.0,54,0.00,,,0.07,VWS V14.01,2013-05-29 18:21:00,
2013-05-29 13:26:00,86.3,67.2,29.85,SE,125,1.0,11.0,53,0.00,,,0.07,VWS V14.01,2013-05-29 18:26:00,
2013-05-29 13:30:00,84.8,70.3,29.87,West,265,0.0,12.0,62,0.00,,,0.07,VWS V14.01,2013-05-29 18:30:00,
2013-05-29 13:31:00,86.5,67.3,29.85,SSE,166,0.0,2.0,53,0.00,,,0.07,VWS V14.01,2013-05-29 18:31:00,
2013-05-29 13:36:00,86.8,67.1,29.85,ESE,123,1.0,8.0,52,0.00,,,0.07,VWS V14.01,2013-05-29 18:36:00,
2013-05-29 13:41:00,87.0,67.3,29.84,SSE,167,0.0,8.0,52,0.00,,,0.07,VWS V14.01,2013-05-29 18:41:00,
2013-05-29 13:46:00,87.2,66.3,29.84,West,278,4.0,8.0,50,0.00,,,0.07,VWS V14.01,2013-05-29 18:46:00,
2013-05-29 13:51:00,87.2,66.3,29.84,WSW,254,0.0,8.0,50,0.00,,,0.07,VWS V14.01,2013-05-29 18:51:00,
2013-05-29 13:56:00,87.3,66.4,29.84,East,83,0.0,8.0,50,0.00,,,0.07,VWS V14.01,2013-05-29 18:56:00,
2013-05-29 14:00:00,85.3,67.3,29.86,ENE,78,0.0,10.0,55,0.00,,,0.07,VWS V14.01,2013-05-29 19:00:00,
2013-05-29 14:01:00,87.3,66.4,29.85,ENE,75,3.0,3.0,50,0.00,,,0.07,VWS V14.01,2013-05-29 19:01:00,
2013-05-29 14:06:00,87.0,65.6,29.84,SSE,167,4.0,8.0,49,0.00,,,0.07,VWS V14.01,2013-05-29 19:06:00,
2013-05-29 14:11:00,87.0,66.1,29.84,East,83,0.0,15.0,50,0.00,,,0.07,VWS V14.01,2013-05-29 19:11:00,
2013-05-29 14:16:00,87.1,66.2,29.84,SSE,161,0.0,15.0,50,0.00,,,0.07,VWS V14.01,2013-05-29 19:16:00,
2013-05-29 14:21:00,87.3,65.8,29.84,SE,143,1.0,15.0,49,0.00,,,0.07,VWS V14.01,2013-05-29 19:21:00,
2013-05-29 14:26:00,87.3,65.2,29.84,South,173,0.0,15.0,48,0.00,,,0.07,VWS V14.01,2013-05-29 19:26:00,
2013-05-29 14:30:00,86.4,66.7,29.85,SSE,147,0.0,11.0,52,0.00,,,0.07,VWS V14.01,2013-05-29 19:30:00,
2013-05-29 14:31:00,87.5,66.6,29.84,SW,236,2.0,3.0,50,0.00,,,0.07,VWS V14.01,2013-05-29 19:31:00,
2013-05-29 14:37:00,87.6,66.7,29.84,West,274,0.0,4.0,50,0.00,,,0.07,VWS V14.01,2013-05-29 19:37:00,
2013-05-29 14:42:00,87.5,68.3,29.84,ESE,105,1.0,4.0,53,0.00,,,0.07,VWS V14.01,2013-05-29 19:42:00,
2013-05-29 14:47:00,87.4,65.9,29.84,ENE,71,0.0,6.0,49,0.00,,,0.07,VWS V14.01,2013-05-29 19:47:00,
2013-05-29 14:52:00,87.2,66.3,29.84,NNE,22,0.0,6.0,50,0.00,,,0.07,VWS V14.01,2013-05-29 19:52:00,
2013-05-29 14:57:00,87.2,66.3,29.84,SSE,161,4.0,6.0,50,0.00,,,0.07,VWS V14.01,2013-05-29 19:57:00,
2013-05-29 15:00:00,87.3,67.5,29.84,West,281,0.0,8.0,52,0.00,,,0.07,VWS V14.01,2013-05-29 20:00:00,
2013-05-29 15:02:00,87.2,68.0,29.84,SSE,150,0.0,0.0,53,0.00,,,0.07,VWS V14.01,2013-05-29 20:02:00,
2013-05-29 15:07:00,87.3,68.1,29.84,ESE,119,6.0,9.0,53,0.00,,,0.07,VWS V14.01,2013-05-29 20:07:00,
2013-05-29 15:12:00,87.1,66.2,29.84,SSW,208,0.0,9.0,50,0.00,,,0.07,VWS V14.01,2013-05-29 20:12:00,
2013-05-29 15:17:00,87.1,66.2,29.84,West,271,0.0,9.0,50,0.00,,,0.07,VWS V14.01,2013-05-29 20:17:00,
2013-05-29 15:22:00,87.0,64.3,29.84,ESE,105,2.0,11.0,47,0.00,,,0.07,VWS V14.01,2013-05-29 20:22:00,
2013-05-29 15:27:00,87.0,66.1,29.83,West,270,1.0,11.0,50,0.00,,,0.07,VWS V14.01,2013-05-29 20:27:00,
2013-05-29 15:30:00,87.4,65.9,29.84,SSE,163,0.0,15.0,49,0.00,,,0.07,VWS V14.01,2013-05-29 20:30:00,
2013-05-29 15:32:00,87.1,66.2,29.83,East,84,3.0,6.0,50,0.00,,,0.07,VWS V14.01,2013-05-29 20:32:00,
2013-05-29 15:37:00,87.1,66.2,29.83,South,182,0.0,7.0,50,0.00,,,0.07,VWS V14.01,2013-05-29 20:37:00,
2013-05-29 15:42:00,87.2,66.9,29.82,West,270,0.0,7.0,51,0.00,,,0.07,VWS V14.01,2013-05-29 20:42:00,
2013-05-29 15:47:00,87.5,67.7,29.83,WSW,242,0.0,7.0,52,0.00,,,0.07,VWS V14.01,2013-05-29 20:47:00,
2013-05-29 15:52:00,87.5,66.6,29.82,West,269,3.0,7.0,50,0.00,,,0.07,VWS V14.01,2013-05-29 20:52:00,
2013-05-29 15:57:00,87.3,65.2,29.82,SSE,154,1.0,7.0,48,0.00,,,0.07,VWS V14.01,2013-05-29 20:57:00,
2013-05-29 16:00:00,87.2,67.4,29.84,SSW,198,0.0,6.0,52,0.00,,,0.07,VWS V14.01,2013-05-29 21:00:00,
2013-05-29 16:02:00,87.1,65.6,29.82,SW,216,0.0,7.0,49,0.00,,,0.07,VWS V14.01,2013-05-29 21:02:00,
2013-05-29 16:07:00,87.1,65.6,29.82,WSW,242,2.0,7.0,49,0.00,,,0.07,VWS V14.01,2013-05-29 21:07:00,
2013-05-29 16:12:00,87.1,66.2,29.82,North,355,2.0,9.0,50,0.00,,,0.07,VWS V14.01,2013-05-29 21:12:00,
2013-05-29 16:17:00,87.0,65.6,29.81,West,262,0.0,9.0,49,0.00,,,0.07,VWS V14.01,2013-05-29 21:17:00,
2013-05-29 16:22:00,87.0,65.6,29.81,SW,223,4.0,9.0,49,0.00,,,0.07,VWS V14.01,2013-05-29 21:22:00,
2013-05-29 16:27:00,86.9,66.0,29.81,West,265,0.0,9.0,50,0.00,,,0.07,VWS V14.01,2013-05-29 21:27:00,
2013-05-29 16:30:00,87.0,66.1,29.83,ESE,105,0.0,11.0,50,0.00,,,0.07,VWS V14.01,2013-05-29 21:30:00,
2013-05-29 16:32:00,86.8,65.4,29.81,SSW,196,2.0,4.0,49,0.00,,,0.07,VWS V14.01,2013-05-29 21:32:00,
2013-05-29 16:37:00,86.9,66.0,29.81,WSW,242,3.0,8.0,50,0.00,,,0.07,VWS V14.01,2013-05-29 21:37:00,
2013-05-29 16:42:00,86.8,66.5,29.81,East,89,0.0,8.0,51,0.00,,,0.07,VWS V14.01,2013-05-29 21:42:00,
2013-05-29 16:47:00,86.6,66.3,29.80,ENE,69,0.0,8.0,51,0.00,,,0.07,VWS V14.01,2013-05-29 21:47:00,
2013-05-29 16:52:00,86.4,65.6,29.80,ESE,111,1.0,13.0,50,0.00,,,0.07,VWS V14.01,2013-05-29 21:52:00,
2013-05-29 16:57:00,86.0,65.2,29.80,SE,124,4.0,13.0,50,0.00,,,0.07,VWS V14.01,2013-05-29 21:57:00,
2013-05-29 17:00:00,87.2,65.1,29.82,SSE,149,0.0,7.0,48,0.00,,,0.07,VWS V14.01,2013-05-29 22:00:00,
2013-05-29 17:02:00,85.8,65.6,29.80,ESE,123,0.0,2.0,51,0.00,,,0.07,VWS V14.01,2013-05-29 22:02:00,
2013-05-29 17:07:00,85.9,66.2,29.79,South,189,0.0,7.0,52,0.00,,,0.07,VWS V14.01,2013-05-29 22:07:00,
2013-05-29 17:12:00,86.0,65.8,29.79,SSE,167,0.0,7.0,51,0.00,,,0.07,VWS V14.01,2013-05-29 22:12:00,
2013-05-29 17:17:00,86.1,67.0,29.79,SE,129,0.0,9.0,53,0.00,,,0.07,VWS V14.01,2013-05-29 22:17:00,
2013-05-29 17:22:00,86.1,67.0,29.79,SE,128,1.0,9.0,53,0.00,,,0.07,VWS V14.01,2013-05-29 22:22:00,
2013-05-29 17:27:00,85.9,66.2,29.79,ESE,104,2.0,9.0,52,0.00,,,0.07,VWS V14.01,2013-05-29 22:27:00,
2013-05-29 17:30:00,86.8,66.5,29.81,WNW,296,4.0,9.0,51,0.00,,,0.07,VWS V14.01,2013-05-29 22:30:00,
2013-05-29 17:32:00,85.7,64.9,29.79,ENE,78,0.0,6.0,50,0.00,,,0.07,VWS V14.01,2013-05-29 22:32:00,
2013-05-29 17:37:00,85.7,65.5,29.79,SSW,209,2.0,6.0,51,0.00,,,0.07,VWS V14.01,2013-05-29 22:37:00,
2013-05-29 17:42:00,85.6,65.4,29.79,ESE,111,0.0,6.0,51,0.00,,,0.07,VWS V14.01,2013-05-29 22:42:00,
2013-05-29 17:47:00,85.5,64.8,29.79,ENE,74,7.0,7.0,50,0.00,,,0.07,VWS V14.01,2013-05-29 22:47:00,
2013-05-29 17:52:00,85.5,65.9,29.79,East,88,0.0,7.0,52,0.00,,,0.07,VWS V14.01,2013-05-29 22:52:00,
2013-05-29 17:57:00,85.4,65.8,29.79,South,176,2.0,8.0,52,0.00,,,0.07,VWS V14.01,2013-05-29 22:57:00,
2013-05-29 18:00:00,85.9,65.1,29.80,ESE,123,0.0,13.0,50,0.00,,,0.07,VWS V14.01,2013-05-29 23:00:00,
2013-05-29 18:02:00,85.3,65.1,29.78,SSW,202,1.0,7.0,51,0.00,,,0.07,VWS V14.01,2013-05-29 23:02:00,
2013-05-29 18:07:00,85.2,65.6,29.78,SE,128,0.0,11.0,52,0.00,,,0.07,VWS V14.01,2013-05-29 23:07:00,
2013-05-29 18:12:00,85.3,66.8,29.78,WSW,237,0.0,11.0,54,0.00,,,0.07,VWS V14.01,2013-05-29 23:12:00,
2013-05-29 18:17:00,85.2,66.7,29.78,East,85,0.0,11.0,54,0.00,,,0.07,VWS V14.01,2013-05-29 23:17:00,
2013-05-29 18:22:00,85.0,66.0,29.78,ESE,115,0.0,11.0,53,0.00,,,0.07,VWS V14.01,2013-05-29 23:22:00,
2013-05-29 18:27:00,84.7,66.2,29.78,SW,236,0.0,11.0,54,0.00,,,0.07,VWS V14.01,2013-05-29 23:27:00,
2013-05-29 18:30:00,85.8,66.2,29.79,ESE,113,0.0,9.0,52,0.00,,,0.07,VWS V14.01,2013-05-29 23:30:00,
2013-05-29 18:32:00,84.5,66.1,29.78,ENE,58,0.0,4.0,54,0.09,,,0.16,VWS V14.01,2013-05-29 23:32:00,
2013-05-29 18:37:00,84.4,65.9,29.78,South,189,0.0,4.0,54,0.09,,,0.16,VWS V14.01,2013-05-29 23:37:00,
2013-05-29 18:42:00,84.3,65.9,29.78,ESE,121,0.0,11.0,54,0.09,,,0.16,VWS V14.01,2013-05-29 23:42:00,
2013-05-29 18:47:00,84.1,66.2,29.78,ESE,103,0.0,11.0,55,0.09,,,0.16,VWS V14.01,2013-05-29 23:47:00,
2013-05-29 18:52:00,83.9,66.5,29.78,ESE,120,0.0,11.0,56,0.09,,,0.16,VWS V14.01,2013-05-29 23:52:00,
2013-05-29 18:57:00,83.8,66.4,29.79,ESE,112,0.0,11.0,56,0.09,,,0.16,VWS V14.01,2013-05-29 23:57:00,
2013-05-29 19:00:00,85.3,65.1,29.79,SW,214,2.0,8.0,51,0.00,,,0.07,VWS V14.01,2013-05-30 00:00:00,
2013-05-29 19:02:00,83.7,65.8,29.78,SE,139,0.0,5.0,55,0.09,,,0.16,VWS V14.01,2013-05-30 00:02:00,
2013-05-29 19:07:00,83.7,65.8,29.78,SSE,156,0.0,7.0,55,0.09,,,0.16,VWS V14.01,2013-05-30 00:07:00,
2013-05-29 19:12:00,83.6,65.7,29.78,ESE,117,0.0,7.0,55,0.09,,,0.16,VWS V14.01,2013-05-30 00:12:00,
2013-05-29 19:17:00,83.4,66.1,29.78,ESE,119,0.0,7.0,56,0.09,,,0.16,VWS V14.01,2013-05-30 00:17:00,
2013-05-29 19:22:00,83.2,65.4,29.78,SSW,205,0.0,8.0,55,0.09,,,0.16,VWS V14.01,2013-05-30 00:22:00,
2013-05-29 19:27:00,83.0,65.7,29.78,ESE,111,1.0,8.0,56,0.09,,,0.16,VWS V14.01,2013-05-30 00:27:00,
2013-05-29 19:30:00,84.6,66.7,29.78,SE,129,0.0,11.0,55,0.00,,,0.07,VWS V14.01,2013-05-30 00:30:00,
2013-05-29 19:32:00,82.8,66.0,29.77,SE,138,2.0,2.0,57,0.09,,,0.16,VWS V14.01,2013-05-30 00:32:00,
2013-05-29 19:37:00,82.4,66.2,29.77,SE,135,0.0,2.0,58,0.09,,,0.16,VWS V14.01,2013-05-30 00:37:00,
2013-05-29 19:42:00,82.0,65.8,29.76,ESE,119,0.0,6.0,58,0.09,,,0.16,VWS V14.01,2013-05-30 00:42:00,
2013-05-29 19:47:00,81.7,66.5,29.76,ESE,119,1.0,6.0,60,0.09,,,0.16,VWS V14.01,2013-05-30 00:47:00,
2013-05-29 19:52:00,81.3,65.1,29.76,ESE,102,0.0,6.0,58,0.09,,,0.16,VWS V14.01,2013-05-30 00:52:00,
2013-05-29 19:57:00,81.1,64.9,29.76,East,96,5.0,6.0,58,0.09,,,0.16,VWS V14.01,2013-05-30 00:57:00,
2013-05-29 20:00:00,83.7,65.8,29.78,ESE,121,0.0,11.0,55,0.09,,,0.16,VWS V14.01,2013-05-30 01:00:00,
2013-05-29 20:02:00,80.9,65.2,29.76,East,89,2.0,2.0,59,0.00,,,0.16,VWS V14.01,2013-05-30 01:02:00,
2013-05-29 20:07:00,80.7,65.1,29.76,East,95,0.0,4.0,59,0.00,,,0.16,VWS V14.01,2013-05-30 01:07:00,
2013-05-29 20:12:00,80.4,65.3,29.76,East,96,0.0,4.0,60,0.00,,,0.16,VWS V14.01,2013-05-30 01:12:00,
2013-05-29 20:17:00,80.1,65.0,29.77,East,96,0.0,4.0,60,0.00,,,0.16,VWS V14.01,2013-05-30 01:17:00,
2013-05-29 20:22:00,79.8,64.2,29.77,SE,144,0.0,4.0,59,0.00,,,0.16,VWS V14.01,2013-05-30 01:22:00,
2013-05-29 20:27:00,79.6,64.0,29.78,SE,126,0.0,4.0,59,0.00,,,0.16,VWS V14.01,2013-05-30 01:27:00,
2013-05-29 20:30:00,82.9,66.1,29.78,ESE,119,0.0,9.0,57,0.09,,,0.16,VWS V14.01,2013-05-30 01:30:00,
2013-05-29 20:32:00,79.4,64.3,29.78,ESE,117,0.0,1.0,60,0.00,,,0.16,VWS V14.01,2013-05-30 01:32:00,
2013-05-29 20:37:00,79.3,63.3,29.78,ESE,117,0.0,2.0,58,0.00,,,0.16,VWS V14.01,2013-05-30 01:37:00,
2013-05-29 20:42:00,79.0,63.5,29.78,ESE,114,0.0,4.0,59,0.00,,,0.16,VWS V14.01,2013-05-30 01:42:00,
2013-05-29 20:47:00,78.9,63.4,29.79,ESE,114,0.0,4.0,59,0.00,,,0.16,VWS V14.01,2013-05-30 01:47:00,
2013-05-29 20:52:00,78.7,63.7,29.79,ESE,114,0.0,4.0,60,0.00,,,0.16,VWS V14.01,2013-05-30 01:52:00,
2013-05-29 20:57:00,78.3,63.3,29.79,ESE,114,0.0,4.0,60,0.00,,,0.16,VWS V14.01,2013-05-30 01:57:00,
2013-05-29 21:00:00,81.0,64.8,29.76,East,89,0.0,6.0,58,0.09,,,0.16,VWS V14.01,2013-05-30 02:00:00,
2013-05-29 21:02:00,78.0,63.0,29.79,ESE,114,0.0,2.0,60,0.00,,,0.16,VWS V14.01,2013-05-30 02:02:00,
2013-05-29 21:07:00,77.8,63.3,29.80,ESE,114,0.0,2.0,61,0.00,,,0.16,VWS V14.01,2013-05-30 02:07:00,
2013-05-29 21:12:00,77.6,63.1,29.80,ESE,114,0.0,2.0,61,0.00,,,0.16,VWS V14.01,2013-05-30 02:12:00,
2013-05-29 21:17:00,77.4,62.9,29.81,ESE,114,0.0,2.0,61,0.00,,,0.16,VWS V14.01,2013-05-30 02:17:00,
2013-05-29 21:22:00,77.3,62.8,29.81,ESE,114,0.0,2.0,61,0.00,,,0.16,VWS V14.01,2013-05-30 02:22:00,
2013-05-29 21:28:00,77.2,63.2,29.82,ESE,114,0.0,2.0,62,0.00,,,0.16,VWS V14.01,2013-05-30 02:28:00,
2013-05-29 21:30:00,79.5,63.9,29.78,ESE,117,0.0,7.0,59,0.00,,,0.16,VWS V14.01,2013-05-30 02:30:00,
2013-05-29 21:33:00,77.1,63.1,29.82,ESE,114,0.0,0.0,62,0.00,,,0.16,VWS V14.01,2013-05-30 02:33:00,
2013-05-29 21:38:00,76.9,63.4,29.83,ESE,114,0.0,0.0,63,0.00,,,0.16,VWS V14.01,2013-05-30 02:38:00,
2013-05-29 21:43:00,76.7,63.2,29.83,ESE,114,0.0,0.0,63,0.00,,,0.16,VWS V14.01,2013-05-30 02:43:00,
2013-05-29 21:48:00,76.5,63.0,29.84,ESE,114,0.0,0.0,63,0.00,,,0.16,VWS V14.01,2013-05-30 02:48:00,
2013-05-29 21:53:00,76.2,63.1,29.84,ESE,114,0.0,0.0,64,0.00,,,0.16,VWS V14.01,2013-05-30 02:53:00,
2013-05-29 21:58:00,76.0,63.0,29.84,ESE,114,0.0,2.0,64,0.00,,,0.16,VWS V14.01,2013-05-30 02:58:00,
2013-05-29 22:00:00,78.1,63.1,29.79,ESE,114,1.0,4.0,60,0.00,,,0.16,VWS V14.01,2013-05-30 03:00:00,
2013-05-29 22:03:00,75.9,63.3,29.85,ESE,114,0.0,0.0,65,0.00,,,0.16,VWS V14.01,2013-05-30 03:03:00,
2013-05-29 22:08:00,75.7,62.7,29.85,ESE,114,0.0,0.0,64,0.00,,,0.16,VWS V14.01,2013-05-30 03:08:00,
2013-05-29 22:13:00,75.7,62.7,29.85,ESE,114,0.0,2.0,64,0.00,,,0.16,VWS V14.01,2013-05-30 03:13:00,
2013-05-29 22:18:00,75.8,62.8,29.85,ESE,114,0.0,2.0,64,0.00,,,0.16,VWS V14.01,2013-05-30 03:18:00,
2013-05-29 22:23:00,75.9,62.9,29.85,ESE,114,0.0,2.0,64,0.00,,,0.16,VWS V14.01,2013-05-30 03:23:00,
2013-05-29 22:28:00,76.0,62.5,29.85,ESE,114,0.0,2.0,63,0.00,,,0.16,VWS V14.01,2013-05-30 03:28:00,
2013-05-29 22:30:00,77.2,63.2,29.82,ESE,114,0.0,2.0,62,0.00,,,0.16,VWS V14.01,2013-05-30 03:30:00,
2013-05-29 22:33:00,76.1,63.0,29.86,ESE,114,0.0,0.0,64,0.00,,,0.16,VWS V14.01,2013-05-30 03:33:00,
2013-05-29 22:38:00,76.0,63.0,29.86,ESE,114,0.0,1.0,64,0.00,,,0.16,VWS V14.01,2013-05-30 03:38:00,
2013-05-29 22:43:00,76.0,62.5,29.86,ESE,114,0.0,2.0,63,0.00,,,0.16,VWS V14.01,2013-05-30 03:43:00,
2013-05-29 22:48:00,76.1,63.0,29.86,ESE,114,0.0,2.0,64,0.00,,,0.16,VWS V14.01,2013-05-30 03:48:00,
2013-05-29 22:53:00,76.0,63.0,29.85,ESE,114,0.0,2.0,64,0.00,,,0.16,VWS V14.01,2013-05-30 03:53:00,
2013-05-29 22:58:00,75.8,62.3,29.85,ESE,114,0.0,2.0,63,0.00,,,0.16,VWS V14.01,2013-05-30 03:58:00,
2013-05-29 23:00:00,75.9,62.9,29.85,ESE,114,0.0,2.0,64,0.00,,,0.16,VWS V14.01,2013-05-30 04:00:00,
2013-05-29 23:03:00,75.8,62.3,29.85,ESE,114,0.0,0.0,63,0.00,,,0.16,VWS V14.01,2013-05-30 04:03:00,
2013-05-29 23:08:00,75.8,62.8,29.86,ESE,115,0.0,4.0,64,0.00,,,0.16,VWS V14.01,2013-05-30 04:08:00,
2013-05-29 23:13:00,75.7,62.7,29.86,ESE,115,0.0,4.0,64,0.00,,,0.16,VWS V14.01,2013-05-30 04:13:00,
2013-05-29 23:23:00,75.6,62.6,29.86,ESE,115,0.0,5.0,64,0.00,,,0.16,VWS V14.01,2013-05-30 04:23:00,
2013-05-29 23:28:00,75.7,63.1,29.86,ESE,115,0.0,5.0,65,0.00,,,0.16,VWS V14.01,2013-05-30 04:28:00,
2013-05-29 23:30:00,76.0,62.5,29.86,ESE,114,0.0,2.0,63,0.00,,,0.16,VWS V14.01,2013-05-30 04:30:00,
2013-05-29 23:33:00,75.6,62.6,29.86,ESE,115,0.0,0.0,64,0.00,,,0.16,VWS V14.01,2013-05-30 04:33:00,
2013-05-29 23:38:00,75.6,62.6,29.86,ESE,115,0.0,2.0,64,0.00,,,0.16,VWS V14.01,2013-05-30 04:38:00,
2013-05-29 23:43:00,75.5,62.9,29.86,ESE,115,1.0,2.0,65,0.00,,,0.16,VWS V14.01,2013-05-30 04:43:00,
2013-05-29 23:48:00,75.4,62.8,29.85,ESE,115,0.0,2.0,65,0.00,,,0.16,VWS V14.01,2013-05-30 04:48:00,
2013-05-29 23:53:00,75.4,63.3,29.85,ESE,117,0.0,2.0,66,0.00,,,0.16,VWS V14.01,2013-05-30 04:53:00,
2013-05-29 23:58:00,75.2,63.1,29.85,ESE,117,0.0,2.0,66,0.00,,,0.16,VWS V14.01,2013-05-30 04:58:00,